Location: Stuttgart
(48.8069°N, 9.1544°E)
Time: 10:00:22
(UTC+02:00)

ISS - Pass Details

Date: 12 February 2018
Orbit: 402 x 406 km, 51.6° (Epoch: 18 June)

Event Time Altitude Azimuth Distance (km) Brightness Sun altitude
Rises 18:25:37 0° 288° (WNW) 2,321 1.2 -8.2°
Reaches altitude 10° 18:27:53 10° 276° (W) 1,459 0.4 -8.6°
Maximum altitude 18:30:42 27° 216° (SW) 805 -1.8 -9.0°
Drops below altitude 10° 18:33:32 10° 156° (SSE) 1,453 -1.2 -9.5°
Enters shadow 18:36:24 -2° 142° (SE) 2,561 -0.1 -9.9°
